TimeEST,TemperatureF,Dew PointF,Humidity,Sea Level PressureIn,VisibilityMPH,Wind Direction,Wind SpeedMPH,Gust SpeedMPH,PrecipitationIn,Events,Conditions,WindDirDegrees,DateUTC
12:15 AM,39.2,32.0,75,30.20,10.0,Calm,Calm,-,N/A,,Clear,0,2012-11-23 05:15:00
12:35 AM,37.4,30.2,75,30.20,10.0,Calm,Calm,-,N/A,,Clear,0,2012-11-23 05:35:00
12:55 AM,37.4,30.2,75,30.19,10.0,Calm,Calm,-,N/A,,Clear,0,2012-11-23 05:55:00
1:15 AM,37.4,30.2,75,30.19,10.0,Calm,Calm,-,N/A,,Clear,0,2012-11-23 06:15:00
1:35 AM,35.6,30.2,81,30.19,10.0,Calm,Calm,-,N/A,,Clear,0,2012-11-23 06:35:00
1:55 AM,35.6,30.2,81,30.19,10.0,Calm,Calm,-,N/A,,Clear,0,2012-11-23 06:55:00
2:15 AM,35.6,30.2,81,30.18,10.0,Calm,Calm,-,N/A,,Clear,0,2012-11-23 07:15:00
2:35 AM,35.6,30.2,81,30.18,10.0,Calm,Calm,-,N/A,,Clear,0,2012-11-23 07:35:00
2:55 AM,35.6,30.2,81,30.19,10.0,Calm,Calm,-,N/A,,Clear,0,2012-11-23 07:55:00
3:15 AM,35.6,30.2,81,30.19,10.0,Calm,Calm,-,N/A,,Clear,0,2012-11-23 08:15:00
3:35 AM,35.6,28.4,75,30.19,10.0,Calm,Calm,-,N/A,,Clear,0,2012-11-23 08:35:00
3:55 AM,33.8,28.4,81,30.19,10.0,Calm,Calm,-,N/A,,Clear,0,2012-11-23 08:55:00
4:15 AM,33.8,28.4,81,30.18,10.0,Calm,Calm,-,N/A,,Clear,0,2012-11-23 09:15:00
4:35 AM,33.8,28.4,81,30.18,10.0,Calm,Calm,-,N/A,,Clear,0,2012-11-23 09:35:00
4:55 AM,33.8,28.4,81,30.18,10.0,Calm,Calm,-,N/A,,Clear,0,2012-11-23 09:55:00
5:15 AM,33.8,28.4,81,30.19,10.0,Calm,Calm,-,N/A,,Clear,0,2012-11-23 10:15:00
5:35 AM,33.8,28.4,81,30.19,10.0,Calm,Calm,-,N/A,,Clear,0,2012-11-23 10:35:00
5:55 AM,33.8,28.4,81,30.19,10.0,Calm,Calm,-,N/A,,Clear,0,2012-11-23 10:55:00
6:15 AM,33.8,28.4,81,30.20,10.0,Calm,Calm,-,N/A,,Clear,0,2012-11-23 11:15:00
6:35 AM,33.8,28.4,81,30.21,10.0,Calm,Calm,-,N/A,,Clear,0,2012-11-23 11:35:00
7:50 AM,33.8,28.4,81,30.23,10.0,Calm,Calm,-,N/A,,Clear,0,2012-11-23 12:50:00
8:50 AM,48.2,37.4,66,30.24,10.0,Calm,Calm,-,N/A,,Clear,0,2012-11-23 13:50:00
9:50 AM,60.8,35.6,39,30.25,10.0,North,3.5,-,N/A,,Clear,10,2012-11-23 14:50:00
10:50 AM,66.2,35.6,32,30.24,10.0,NNW,6.9,-,N/A,,Clear,330,2012-11-23 15:50:00
11:50 AM,68.0,35.6,30,30.22,10.0,NNW,10.4,-,N/A,,Clear,330,2012-11-23 16:50:00
12:50 PM,71.6,35.6,27,30.18,10.0,NNW,12.7,16.1,N/A,,Clear,330,2012-11-23 17:50:00
1:50 PM,71.6,35.6,27,30.15,10.0,North,9.2,-,N/A,,Clear,360,2012-11-23 18:50:00
2:50 PM,73.4,35.6,25,30.13,10.0,North,11.5,-,N/A,,Clear,360,2012-11-23 19:50:00
3:50 PM,73.4,35.6,25,30.10,10.0,NNW,11.5,-,N/A,,Clear,340,2012-11-23 20:50:00
4:55 PM,69.8,37.4,31,30.10,10.0,NNW,4.6,-,N/A,,Clear,330,2012-11-23 21:55:00
5:50 PM,60.8,37.4,42,30.11,10.0,SW,6.9,-,N/A,,Clear,230,2012-11-23 22:50:00
6:50 PM,57.2,41.0,55,30.11,10.0,SW,5.8,-,N/A,,Clear,220,2012-11-23 23:50:00
7:55 PM,55.4,42.8,63,30.13,10.0,SW,4.6,-,N/A,,Clear,220,2012-11-24 00:55:00
8:15 PM,53.6,42.8,67,30.14,10.0,SW,4.6,-,N/A,,Clear,220,2012-11-24 01:15:00
8:35 PM,53.6,44.6,72,30.14,10.0,Calm,Calm,-,N/A,,Clear,0,2012-11-24 01:35:00
8:55 PM,53.6,42.8,67,30.14,10.0,South,4.6,-,N/A,,Clear,190,2012-11-24 01:55:00
9:15 PM,51.8,44.6,76,30.13,10.0,SSW,3.5,-,N/A,,Clear,200,2012-11-24 02:15:00
9:35 PM,48.2,41.0,76,30.13,10.0,Calm,Calm,-,N/A,,Clear,0,2012-11-24 02:35:00
9:55 PM,48.2,41.0,76,30.13,10.0,SSW,3.5,-,N/A,,Clear,200,2012-11-24 02:55:00
10:15 PM,46.4,39.2,76,30.13,10.0,Calm,Calm,-,N/A,,Clear,0,2012-11-24 03:15:00
10:35 PM,48.2,44.6,87,30.12,10.0,Calm,Calm,-,N/A,,Clear,0,2012-11-24 03:35:00
10:55 PM,48.2,42.8,82,30.12,10.0,SSW,3.5,-,N/A,,Clear,200,2012-11-24 03:55:00
11:15 PM,48.2,42.8,82,30.11,8.0,SSW,3.5,-,N/A,,Clear,210,2012-11-24 04:15:00
11:35 PM,51.8,46.4,82,30.11,8.0,Calm,Calm,-,N/A,,Clear,0,2012-11-24 04:35:00
11:55 PM,46.4,41.0,81,30.11,2.0,Calm,Calm,-,N/A,,Clear,0,2012-11-24 04:55:00